{"data":{"norad_id":56721,"intl_designator":"2023-068M","name":"ONEWEB-0686","alt_names":[],"object_type":"PAYLOAD","status":"ACTIVE","operator":null,"country":"UK","launch_date":"2023-05-20","launch_site_code":"AFWTR","launch_vehicle":null,"mission":null,"orbit_class":"UNKNOWN","rcs_meters":null,"size_class":null,"mass_kg":null,"dimensions":null,"purposes":["comms"],"wikipedia_slug":null,"has_3d_model":false,"image_url":null,"decayed_at":null,"tle_current":{"epoch":"2026-09-19T16:02:22.613856Z","epoch_age_seconds":93910,"freshness":"FRESH","line1":"1 56721U 23068M   26262.66831729  .00000000  00000+0 -34765-4 0  9999","line2":"2 56721  87.9140 210.0274 0001713  74.2441 285.8879 13.16594144164143","mean_motion":13.16594144,"eccentricity":0.0001713,"inclination_deg":87.914,"raan_deg":210.0274,"arg_perigee_deg":74.2441,"mean_anomaly_deg":285.8879,"bstar":-3.4765e-5,"rev_number":16414,"period_min":109.37311293403,"perigee_km":1196.4593499145,"apogee_km":1199.0548512334,"semimajor_km":7575.8941005739,"source":"CELESTRAK","updated_at":"2026-09-20T09:00:44.796591Z"}}}